EW1090 Weather Reports


Display with metric or nautical units.
time (UTC)temp
F
wind
direction
speed
MPH
gust
MPH
rain 1hr
in
rain 24hr
in
rain mn
in
humidity
%
barometer
mb
20260509130807 73 53 5.0 11.0 0.00 0.61 0.61 78 1012.9
20260509130323 75 47 0.0 2.0 0.00 0.61 0.61 86 1012.7
20260509125837 75 313 0.0 5.0 0.00 0.61 0.61 87 1011.3
20260509125314 75 193 2.0 6.0 0.00 0.61 0.61 86 1010.6
20260509124809 75 247 0.0 6.0 0.00 0.61 0.61 86 1010.5
20260509124305 74 217 2.0 6.0 0.00 0.61 0.61 86 1010.6
20260509123802 74 190 0.0 0.0 0.00 0.61 0.61 87 1010.7
20260509123257 74 203 0.0 5.0 0.00 0.61 0.61 87 1010.5
20260509122320 74 175 1.0 5.0 0.00 0.61 0.61 86 1010.4
20260509121811 73 201 2.0 6.0 0.00 0.61 0.61 86 1010.4
20260509121308 73 199 2.0 6.0 0.00 0.61 0.61 86 1010.2
20260509120805 73 319 0.0 1.0 0.00 0.61 0.61 86 1010.1
20260509120322 73 239 0.0 3.0 0.00 0.61 0.61 86 1010.2
20260509115839 73 209 0.0 4.0 0.00 0.61 0.61 85 1010.1
20260509115314 73 169 0.0 4.0 0.00 0.61 0.61 85 1010.1
20260509114830 73 187 1.0 4.0 0.00 0.61 0.61 85 1010.1
20260509114306 73 169 1.0 3.0 0.00 0.61 0.61 85 1010.2
20260509113802 73 180 0.0 0.0 0.00 0.61 0.61 85 1010.1
20260509113345 73 180 0.0 1.0 0.00 0.61 0.61 85 1009.8
20260509112819 73 159 0.0 2.0 0.00 0.61 0.61 84 1009.8
20260509112336 73 159 0.0 2.0 0.00 0.61 0.61 84 1009.8
20260509111832 73 159 0.0 1.0 0.00 0.61 0.61 84 1009.7
20260509111327 73 101 0.0 3.0 0.00 0.61 0.61 84 1009.7
20260509110802 73 73 0.0 5.0 0.00 0.61 0.61 84 1009.8
20260509110258 73 125 2.0 5.0 0.00 0.61 0.61 84 1009.7
20260509105815 73 141 0.0 1.0 0.00 0.61 0.61 83 1009.8
20260509105330 73 144 0.0 4.0 0.00 0.61 0.61 83 1009.8
20260509104807 73 148 1.0 4.0 0.00 0.61 0.61 83 1009.7
20260509104304 73 153 0.0 5.0 0.00 0.61 0.61 83 1009.6
20260509103801 73 160 0.0 5.0 0.00 0.61 0.61 83 1009.6
20260509103317 73 163 0.0 6.0 0.00 0.61 0.61 83 1009.4
20260509102814 73 159 1.0 6.0 0.00 0.61 0.61 82 1009.2
20260509101809 73 154 0.0 3.0 0.00 0.61 0.61 82 1009.1
20260509101305 73 115 1.0 4.0 0.00 0.61 0.61 82 1009.1
20260509100818 72 67 0.0 6.0 0.00 0.61 0.61 82 1009.0
20260509100335 72 142 1.0 6.0 0.00 0.61 0.61 82 1008.9
20260509095810 72 89 1.0 3.0 0.00 0.61 0.61 82 1009.0
20260509095327 72 163 1.0 3.0 0.00 0.61 0.61 82 1009.0
20260509094800 72 118 0.0 9.0 0.00 0.61 0.61 82 1009.1
20260509094316 72 66 2.0 9.0 0.00 0.61 0.61 82 1009.2
20260509093812 72 159 1.0 4.0 0.00 0.61 0.61 82 1009.3
20260509093328 72 146 0.0 8.0 0.00 0.61 0.61 82 1009.3
20260509092803 72 113 1.0 8.0 0.00 0.61 0.61 82 1009.1
20260509092300 72 121 1.0 7.0 0.00 0.61 0.61 81 1009.0
20260509091817 72 145 1.0 6.0 0.00 0.61 0.61 81 1009.2
20260509091312 72 90 1.0 6.0 0.00 0.61 0.61 81 1009.4
20260509090809 72 178 0.0 3.0 0.00 0.61 0.61 81 1009.5
20260509090325 72 192 1.0 4.0 0.00 0.61 0.61 81 1009.5
20260509085759 72 225 0.0 6.0 0.00 0.61 0.61 81 1009.4
20260509085317 72 211 1.0 7.0 0.00 0.61 0.61 81 1009.6
20260509084813 72 163 1.0 4.0 0.00 0.61 0.61 81 1009.5
20260509084309 72 159 0.0 5.0 0.00 0.61 0.61 81 1009.7
20260509083803 72 151 1.0 5.0 0.00 0.61 0.61 81 1010.0
20260509083320 72 164 2.0 5.0 0.00 0.61 0.61 81 1010.1
20260509082815 72 177 2.0 7.0 0.00 0.61 0.61 81 1010.0
20260509082311 72 161 2.0 7.0 0.00 0.61 0.61 80 1010.0
20260509081806 72 107 1.0 5.0 0.00 0.61 0.61 81 1010.2
20260509081322 72 175 1.0 7.0 0.00 0.61 0.61 81 1010.2
20260509080818 72 168 2.0 9.0 0.00 0.61 0.61 81 1010.2
20260509080335 72 111 1.0 9.0 0.00 0.61 0.61 81 1010.5
20260509075810 72 155 0.0 4.0 0.00 0.61 0.61 82 1010.5
20260509075307 72 133 1.0 4.0 0.00 0.61 0.61 82 1010.2
20260509074803 72 110 0.0 3.0 0.00 0.61 0.61 82 1010.2
20260509074314 72 153 1.0 4.0 0.00 0.61 0.61 83 1010.5
20260509073832 72 142 1.0 4.0 0.00 0.61 0.61 83 1010.9
20260509073306 72 123 0.0 2.0 0.00 0.61 0.61 83 1011.0
20260509072803 72 123 0.0 2.0 0.00 0.61 0.61 84 1011.1
20260509072258 72 123 0.0 4.0 0.00 0.61 0.61 83 1011.0
20260509071814 72 123 0.0 4.0 0.00 0.61 0.61 83 1011.2
20260509071303 72 153 0.0 1.0 0.00 0.61 0.61 84 1011.2
20260509070800 72 146 0.0 2.0 0.00 0.61 0.61 84 1011.1
20260509070316 71 163 0.0 2.0 0.00 0.61 0.61 84 1011.4
20260509065813 71 171 0.0 4.0 0.00 0.61 0.61 84 1011.6
20260509065309 71 74 0.0 4.0 0.00 0.61 0.61 86 1011.6
20260509064807 71 74 0.0 4.0 0.00 0.61 0.61 86 1011.7
20260509064303 71 88 0.0 0.0 0.00 0.61 0.61 88 1011.8
20260509063819 71 88 0.0 0.0 0.00 0.61 0.61 88 1012.0
20260509063335 71 88 0.0 0.0 0.00 0.61 0.61 88 1012.1
20260509062811 71 88 0.0 0.0 0.00 0.61 0.61 88 1012.1
20260509062306 70 88 0.0 0.0 0.00 0.61 0.61 88 1011.9
20260509061803 70 88 0.0 0.0 0.00 0.61 0.61 88 1011.7
20260509061259 71 125 0.0 0.0 0.00 0.61 0.61 89 1011.6
20260509060815 70 125 0.0 0.0 0.00 0.61 0.61 89 1011.8
20260509060312 70 125 0.0 0.0 0.00 0.61 0.61 89 1012.1
20260509055828 70 125 0.0 0.0 0.00 0.61 0.61 89 1012.3
20260509055306 70 125 0.0 0.0 0.00 0.61 0.61 89 1012.4
20260509054818 70 125 0.0 0.0 0.00 0.61 0.61 89 1012.4
20260509054313 70 125 0.0 0.0 0.00 0.61 0.61 89 1012.5
20260509053811 70 125 0.0 0.0 0.00 0.61 0.61 88 1012.3
20260509053307 71 125 0.0 0.0 0.00 0.61 0.61 88 1011.9
20260509052804 71 125 0.0 0.0 0.00 0.61 0.61 88 1012.0
20260509052300 71 125 0.0 0.0 0.00 0.61 0.61 88 1012.1
20260509051817 71 125 0.0 0.0 0.00 0.61 0.61 88 1012.0
20260509051314 71 125 0.0 0.0 0.00 0.61 0.61 88 1012.0
20260509050809 71 125 0.0 0.0 0.00 0.61 0.61 89 1012.0
20260509050305 71 125 0.0 0.0 0.00 0.61 0.61 89 1011.9
20260509045813 71 125 0.0 0.0 0.00 0.61 0.61 89 1011.8
20260509045309 71 125 0.0 0.0 0.00 0.61 0.61 89 1011.8
20260509044806 71 125 0.0 0.0 0.00 0.61 0.61 89 1012.0
20260509044303 71 169 0.0 0.0 0.00 0.61 0.61 89 1012.2
20260509043759 71 169 0.0 0.0 0.00 0.61 0.61 89 1011.9
20260509043315 71 169 0.0 0.0 0.00 0.61 0.61 89 1011.9
20260509042810 71 169 0.0 0.0 0.00 0.61 0.61 89 1011.6
20260509042307 71 169 0.0 0.0 0.00 0.61 0.61 89 1011.7
20260509041803 71 107 0.0 0.0 0.00 0.61 0.61 89 1011.8
20260509041259 71 134 0.0 0.0 0.00 0.61 0.61 90 1011.7
20260509040817 70 119 0.0 2.0 0.00 0.61 0.61 90 1011.6
20260509040312 70 119 0.0 6.0 0.00 0.61 0.61 90 1011.6
20260509035808 70 127 1.0 6.0 0.00 0.61 0.61 90 1011.5
20260509035306 70 117 0.0 3.0 0.00 0.61 0.61 90 1011.4
20260509034800 70 165 0.0 2.0 0.00 0.61 0.61 90 1011.3
20260509034313 70 165 0.0 2.0 0.00 0.61 0.61 90 1011.2
20260509033830 70 126 0.0 4.0 0.00 0.61 0.61 90 1011.2
20260509033305 70 144 1.0 5.0 0.00 0.61 0.61 90 1011.3
20260509032802 70 130 0.0 5.0 0.00 0.61 0.61 90 1011.1
20260509032259 70 166 0.0 4.0 0.00 0.61 0.61 90 1011.1
20260509031814 70 154 1.0 4.0 0.00 0.61 0.61 90 1011.2
20260509031324 70 132 1.0 3.0 0.00 0.61 0.61 90 1011.4
20260509030800 70 132 0.0 0.0 0.00 0.61 0.61 90 1011.6
20260509030316 70 132 0.0 0.0 0.00 0.61 0.61 90 1011.7
20260509025811 70 132 0.0 0.0 0.00 0.61 0.61 90 1011.7
20260509025307 70 132 0.0 0.0 0.00 0.61 0.61 90 1011.7
20260509024823 70 132 0.0 0.0 0.00 0.61 0.61 90 1011.6
20260509024340 70 132 0.0 0.0 0.00 0.61 0.61 90 1011.6
20260509023836 70 132 0.0 0.0 0.00 0.61 0.61 90 1011.5
20260509023311 70 132 0.0 1.0 0.00 0.61 0.61 90 1011.4
20260509022808 70 132 0.0 0.0 0.00 0.61 0.61 90 1011.2
20260509022324 70 46 0.0 2.0 0.00 0.61 0.61 90 1011.1
20260509021818 70 45 0.0 2.0 0.00 0.61 0.61 90 1011.0
20260509021318 70 351 0.0 2.0 0.00 0.61 0.61 90 1010.8
20260509020815 70 151 0.0 2.0 0.00 0.61 0.61 90 1010.7
20260509020332 70 117 0.0 4.0 0.00 0.61 0.61 90 1010.8
20260509015805 69 113 1.0 4.0 0.00 0.61 0.61 90 1011.0
20260509015301 69 94 0.0 4.0 0.00 0.61 0.61 90 1010.9
20260509014815 69 87 2.0 4.0 0.00 0.61 0.61 90 1010.8
20260509014311 69 142 1.0 4.0 0.00 0.61 0.61 90 1010.9
20260509013807 69 113 2.0 4.0 0.00 0.61 0.61 89 1010.8
20260509013304 69 146 0.0 6.0 0.00 0.61 0.61 89 1010.7
20260509012759 69 102 1.0 6.0 0.00 0.61 0.61 89 1010.7
20260509012318 69 151 3.0 7.0 0.00 0.61 0.61 89 1010.6
20260509011813 69 153 2.0 8.0 0.00 0.61 0.61 89 1010.7
20260509011307 69 157 3.0 8.0 0.01 0.61 0.61 89 1010.9
20260509010803 70 110 1.0 5.0 0.01 0.61 0.61 90 1010.8
20260509010259 70 126 1.0 4.0 0.02 0.61 0.61 89 1010.8
20260509005816 70 125 1.0 3.0 0.02 0.61 0.61 90 1010.8
20260509005313 70 81 1.0 3.0 0.03 0.61 0.61 90 1010.8
20260509004809 70 81 1.0 3.0 0.04 0.61 0.61 90 1010.9
20260509004306 70 72 0.0 0.0 0.04 0.61 0.61 90 1011.0
20260509003802 70 67 0.0 5.0 0.05 0.61 0.61 90 1011.0
20260509003259 70 103 0.0 5.0 0.06 0.61 0.61 90 1010.9
20260509002815 70 176 2.0 5.0 0.07 0.61 0.61 90 1011.0
20260509002311 70 133 0.0 0.0 0.08 0.61 0.61 90 1011.1
20260509001808 70 133 0.0 0.0 0.08 0.61 0.61 90 1011.3
20260509001302 70 133 0.0 0.0 0.08 0.60 0.60 90 1011.5
20260509000819 70 133 0.0 0.0 0.09 0.60 0.60 90 1011.5
20260509000318 70 133 0.0 0.0 0.10 0.59 0.59 90 1011.6
20260508235812 70 133 0.0 0.0 0.11 0.59 0.59 90 1011.8
20260508235307 69 133 0.0 0.0 0.11 0.58 0.58 90 1011.8
20260508234803 69 133 0.0 0.0 0.11 0.57 0.57 90 1011.9
20260508234300 69 133 0.0 0.0 0.12 0.57 0.57 90 1011.9
20260508233843 69 133 0.0 0.0 0.12 0.56 0.56 90 1011.9
20260508233319 69 133 0.0 0.0 0.13 0.55 0.55 90 1011.8
20260508232816 69 133 0.0 0.0 0.13 0.54 0.54 90 1011.9
20260508232313 69 133 0.0 0.0 0.13 0.53 0.53 90 1011.9
20260508231811 69 133 0.0 0.0 0.15 0.53 0.53 90 1011.8
20260508231328 69 132 0.0 2.0 0.15 0.52 0.52 90 1011.8
20260508230849 69 132 0.0 5.0 0.15 0.51 0.51 90 1011.4
20260508230304 69 132 1.0 5.0 0.15 0.49 0.49 90 1011.4
20260508225800 69 115 2.0 9.0 0.15 0.48 0.48 90 1011.6
20260508225317 69 79 3.0 9.0 0.16 0.47 0.47 89 1011.8
20260508224813 69 153 3.0 6.0 0.16 0.46 0.46 90 1011.7
20260508224310 68 167 1.0 8.0 0.17 0.45 0.45 89 1011.8
20260508223807 68 103 3.0 6.0 0.17 0.44 0.44 89 1011.7
20260508223304 68 175 3.0 6.0 0.17 0.42 0.42 89 1012.0
20260508222802 68 184 2.0 7.0 0.18 0.41 0.41 89 1011.8
20260508222317 68 141 3.0 7.0 0.18 0.40 0.40 89 1011.6
20260508221813 68 62 2.0 7.0 0.18 0.38 0.38 89 1011.5
20260508221309 68 151 2.0 8.0 0.19 0.37 0.37 89 1011.5
20260508220805 68 69 3.0 9.0 0.20 0.36 0.36 89 1011.4
20260508220318 68 78 1.0 9.0 0.20 0.34 0.34 89 1011.6
20260508215834 69 163 2.0 7.0 0.21 0.33 0.33 89 1011.9
20260508215309 69 77 4.0 9.0 0.21 0.31 0.31 89 1012.1
20260508214806 69 87 2.0 8.0 0.22 0.30 0.30 89 1012.5
20260508214302 69 109 1.0 6.0 0.22 0.28 0.28 89 1012.4
20260508213819 68 81 0.0 6.0 0.24 0.27 0.27 89 1012.5
20260508213315 69 138 2.0 7.0 0.23 0.25 0.25 89 1012.7
20260508212812 68 37 1.0 5.0 0.23 0.23 0.23 89 1013.0
20260508212309 68 58 1.0 5.0 0.21 0.21 0.21 89 1013.2
20260508211805 68 46 2.0 9.0 0.20 0.20 0.20 89 1012.9
20260508211302 68 59 3.0 9.0 0.18 0.18 0.18 89 1013.0
20260508210819 68 297 2.0 7.0 0.16 0.16 0.16 89 1012.8
20260508210314 68 24 2.0 7.0 0.14 0.14 0.14 88 1013.6
20260508205809 68 53 3.0 11.0 0.12 0.12 0.12 88 1013.4
20260508205306 69 18 4.0 11.0 0.10 0.10 0.10 87 1013.0
20260508204801 69 57 2.0 11.0 0.08 0.08 0.08 87 1013.2
20260508204344 69 36 3.0 11.0 0.06 0.06 0.06 86 1013.3
20260508203838 69 32 3.0 13.0 0.03 0.03 0.03 85 1013.0
20260508203333 70 76 3.0 13.0 0.02 0.02 0.02 83 1012.9
20260508202819 70 5 3.0 18.0 0.00 0.00 0.00 82 1012.8
20260508202315 70 16 3.0 18.0 0.00 0.00 0.00 82 1012.7
20260508201830 70 64 3.0 14.0 0.00 0.00 0.00 81 1012.7
20260508201306 70 22 4.0 14.0 0.00 0.00 0.00 81 1012.9
20260508200802 70 71 4.0 13.0 0.00 0.00 0.00 81 1012.8
20260508200336 70 76 3.0 13.0 0.00 0.00 0.00 80 1012.4
20260508195811 71 38 4.0 15.0 0.00 0.00 0.00 80 1012.5
20260508195326 71 118 4.0 15.0 0.00 0.00 0.00 79 1012.6
20260508194800 72 5 3.0 9.0 0.00 0.00 0.00 79 1012.8
20260508193811 73 323 2.0 9.0 0.00 0.00 0.00 79 1013.0
20260508193308 73 310 3.0 9.0 0.00 0.00 0.00 79 1013.1
20260508192804 74 350 2.0 8.0 0.00 0.00 0.00 79 1013.3
20260508192321 74 32 1.0 8.0 0.00 0.00 0.00 79 1013.3
20260508191838 75 63 2.0 8.0 0.00 0.00 0.00 79 1013.3
20260508191313 75 116 0.0 3.0 0.00 0.00 0.00 79 1013.4
20260508190808 75 96 0.0 5.0 0.00 0.00 0.00 79 1013.4
20260508190303 75 38 1.0 5.0 0.00 0.00 0.00 78 1013.2
20260508185800 75 59 0.0 5.0 0.00 0.00 0.00 78 1012.9
20260508185316 75 61 2.0 5.0 0.00 0.00 0.00 78 1012.8
20260508184812 75 132 2.0 7.0 0.00 0.00 0.00 78 1012.8
20260508184308 75 157 2.0 7.0 0.00 0.00 0.00 78 1012.7
20260508183803 75 67 1.0 8.0 0.00 0.00 0.00 78 1012.7
20260508183320 76 88 3.0 10.0 0.00 0.00 0.00 77 1012.7
20260508182815 76 94 3.0 10.0 0.00 0.00 0.00 77 1012.6
20260508182310 76 74 3.0 7.0 0.00 0.00 0.00 76 1012.7
20260508181817 76 73 2.0 8.0 0.00 0.00 0.00 76 1012.8
20260508181313 76 57 3.0 8.0 0.00 0.00 0.00 76 1012.8
20260508180810 76 98 3.0 12.0 0.00 0.00 0.00 76 1012.6
20260508180305 77 71 5.0 12.0 0.00 0.00 0.00 75 1012.6
20260508175800 77 107 4.0 11.0 0.00 0.00 0.00 74 1012.7
20260508175317 77 137 1.0 11.0 0.00 0.00 0.00 74 1012.6
20260508174814 77 81 2.0 8.0 0.00 0.00 0.00 74 1012.5
20260508174310 77 52 2.0 15.0 0.00 0.00 0.00 73 1012.6
20260508173825 78 94 4.0 15.0 0.00 0.00 0.00 73 1012.8
20260508173341 78 76 1.0 10.0 0.00 0.00 0.00 73 1012.9
20260508172816 78 60 1.0 9.0 0.00 0.00 0.00 73 1013.0
20260508172312 78 66 2.0 9.0 0.00 0.00 0.00 73 1013.3
20260508171808 78 72 0.0 0.0 0.00 0.00 0.00 72 1013.4
20260508171305 78 112 0.0 0.0 0.00 0.00 0.00 73 1013.5
20260508170821 78 92 0.0 0.0 0.00 0.00 0.00 73 1013.3
20260508170315 77 63 0.0 0.0 0.00 0.00 0.00 73 1013.3
20260508165812 78 74 0.0 8.0 0.00 0.00 0.00 72 1013.3
20260508165308 78 66 3.0 8.0 0.00 0.00 0.00 72 1013.3
20260508164803 78 137 2.0 10.0 0.00 0.00 0.00 73 1013.2
20260508164301 77 143 2.0 10.0 0.00 0.00 0.00 73 1013.2
20260508163817 77 115 0.0 7.0 0.00 0.00 0.00 74 1013.2
20260508163312 77 102 0.0 8.0 0.00 0.00 0.00 74 1013.3
20260508162806 77 165 1.0 8.0 0.00 0.00 0.00 75 1013.3
20260508162306 76 180 1.0 8.0 0.00 0.00 0.00 75 1013.3
20260508161818 76 78 1.0 9.0 0.00 0.00 0.00 76 1013.4
20260508161313 75 119 1.0 12.0 0.00 0.00 0.00 77 1013.5
20260508160853 75 113 3.0 12.0 0.00 0.00 0.00 77 1013.7
20260508160306 74 90 0.0 10.0 0.00 0.00 0.00 78 1013.8
20260508155803 74 55 3.0 10.0 0.00 0.00 0.00 78 1013.9
20260508155300 74 11 3.0 10.0 0.00 0.00 0.00 78 1013.9
20260508154816 74 141 3.0 7.0 0.00 0.00 0.00 78 1014.0
20260508154313 74 69 2.0 6.0 0.00 0.00 0.00 79 1014.0
20260508153830 73 140 2.0 6.0 0.00 0.00 0.00 78 1014.1
20260508153306 73 97 0.0 8.0 0.00 0.00 0.00 79 1014.2
20260508152802 73 78 2.0 8.0 0.00 0.00 0.00 78 1014.2
20260508152318 73 56 4.0 8.0 0.00 0.00 0.00 78 1014.1
20260508151813 73 71 1.0 9.0 0.00 0.00 0.00 79 1014.0
20260508151310 73 53 3.0 9.0 0.00 0.00 0.00 79 1013.9
20260508150806 73 74 1.0 5.0 0.00 0.00 0.00 79 1013.8
20260508150303 73 72 2.0 5.0 0.00 0.00 0.00 79 1013.8
20260508145819 73 76 0.0 8.0 0.00 0.00 0.00 78 1013.8
20260508145317 73 78 327.0 327.0 0.00 0.00 0.00 78 1013.9
20260508144812 73 89 1.0 8.0 0.00 0.00 0.00 77 1014.0
20260508144308 73 355 0.0 9.0 0.00 0.00 0.00 77 1013.9
20260508143805 73 171 3.0 9.0 0.00 0.00 0.00 76 1013.8
20260508143301 73 156 1.0 7.0 0.00 0.00 0.00 76 1013.7
20260508142818 73 73 1.0 7.0 0.00 0.00 0.00 76 1013.7
20260508142314 73 38 2.0 6.0 0.00 0.00 0.00 76 1013.5
20260508141810 73 74 1.0 10.0 0.00 0.00 0.00 77 1013.6
20260508141307 72 80 2.0 10.0 0.00 0.01 0.00 78 1013.7
20260508140803 72 151 2.0 6.0 0.00 0.01 0.00 77 1013.9
20260508140300 71 70 0.0 4.0 0.00 0.01 0.00 79 1013.9
20260508135816 71 84 0.0 8.0 0.00 0.01 0.00 79 1013.8
20260508135314 70 67 1.0 8.0 0.00 0.01 0.00 79 1013.9
20260508134810 70 100 2.0 8.0 0.00 0.01 0.00 79 1013.9
20260508134306 70 80 3.0 7.0 0.00 0.01 0.00 79 1014.0
20260508133803 70 108 1.0 8.0 0.00 0.01 0.00 79 1014.1
20260508133320 70 74 2.0 8.0 0.00 0.01 0.00 78 1014.1
20260508132816 70 85 1.0 8.0 0.00 0.01 0.00 79 1014.0
20260508132311 70 104 0.0 7.0 0.00 0.01 0.00 79 1013.9
20260508131808 70 65 2.0 8.0 0.00 0.01 0.00 79 1013.9
20260508131305 70 94 2.0 8.0 0.00 0.01 0.00 79 1014.1